Weather History for Spirit of St Louis, MO

Change the Weather History Date:

Thursday, February 9, 2012

  Actual Average Record
Temperature  
Mean Temperature 34 °F -  
Max Temperature 39 °F 43 °F 71 °F (2009)
Min Temperature 30 °F 25 °F 10 °F (2006)
Degree Days  
Heating Degree Days 30    
Moisture  
Dew Point 25 °F    
Average Humidity 69    
Maximum Humidity 88    
Minimum Humidity 51    
Precipitation  
Precipitation 0.00 in - - ()
Sea Level Pressure  
Sea Level Pressure 30.31 in    
Wind  
Wind Speed 2 mph (SSW)    
Max Wind Speed 8 mph    
Max Gust Speed -    
Visibility 10 miles    
Events      
Averages and records for this station are not official NWS values.
T = Trace of Precipitation, MM = Missing Value Source: NWS Daily Summary

Daily Weather History Graph

Daily Weather History Graph

Search for Another Location

Airport:

Trip Planner

Search our weather history database for the weather conditions in past years. The results will help you decide how hot, cold, wet, or windy it might be!

Date:

Astronomy

Feb. 09, 2012 Rise Set
Actual Time 7:00 AM CST 5:33 PM CST
Civil Twilight 6:33 AM CST 6:00 PM CST
Nautical Twilight 6:02 AM CST 6:32 PM CST
Astronomical Twilight 5:31 AM CST 7:03 PM CST
Moon 7:59 PM CST (2/9) 7:39 AM CST (2/9)
Length of Visible Light 11h 27m
Length of Day
10h 32m
Waning Gibbous, 96% of the Moon is Illuminated
Feb 9
Waning Gibbous
Feb 14
Last Quarter
Feb 21
New
Feb 29
First Quarter
Mar 8
Full

Hourly Weather History & Observations

Time (CST) Temp. Windchill Dew Point Humidity Pressure Visibility Wind Dir Wind Speed Gust Speed Precip Events Conditions
12:54 AM 33.1 °F - 28.0 °F 82% 30.41 in 10.0 mi Calm Calm - N/A   Overcast
1:54 AM 33.1 °F - 28.9 °F 85% 30.40 in 10.0 mi Calm Calm - N/A   Overcast
2:54 AM 32.0 °F - 28.9 °F 88% 30.39 in 10.0 mi Calm Calm - N/A   Overcast
3:54 AM 32.0 °F - 24.1 °F 73% 30.37 in 10.0 mi Calm Calm - N/A   Overcast
4:54 AM 30.0 °F - 26.1 °F 85% 30.38 in 10.0 mi Calm Calm - N/A   Overcast
5:54 AM 30.9 °F - 24.1 °F 76% 30.38 in 10.0 mi Calm Calm - N/A   Scattered Clouds
6:54 AM 30.0 °F - 24.1 °F 79% 30.38 in 10.0 mi Calm Calm - N/A   Overcast
7:54 AM 30.9 °F - 26.1 °F 82% 30.39 in 10.0 mi Calm Calm - N/A   Overcast
8:54 AM 32.0 °F - 23.0 °F 69% 30.40 in 10.0 mi Calm Calm - N/A   Overcast
9:54 AM 35.1 °F 30.1 °F 25.0 °F 67% 30.38 in 10.0 mi SE 5.8 mph - N/A   Partly Cloudy
10:54 AM 37.9 °F 33.5 °F 21.0 °F 51% 30.36 in 10.0 mi West 5.8 mph - N/A   Mostly Cloudy
11:54 AM 37.9 °F 34.4 °F 21.9 °F 53% 30.33 in 10.0 mi SW 4.6 mph - N/A   Overcast
12:54 PM 37.9 °F 33.5 °F 23.0 °F 55% 30.30 in 10.0 mi WSW 5.8 mph - N/A   Overcast
1:54 PM 37.9 °F 34.4 °F 23.0 °F 55% 30.27 in 10.0 mi WSW 4.6 mph - N/A   Overcast
2:54 PM 39.0 °F 34.0 °F 23.0 °F 53% 30.26 in 10.0 mi SW 6.9 mph - N/A   Overcast
3:54 PM 37.9 °F 34.4 °F 23.0 °F 55% 30.25 in 10.0 mi SSW 4.6 mph - N/A   Overcast
4:54 PM 37.9 °F 33.5 °F 24.1 °F 57% 30.24 in 10.0 mi South 5.8 mph - N/A   Overcast
5:54 PM 37.0 °F 33.3 °F 26.1 °F 65% 30.23 in 10.0 mi South 4.6 mph - N/A   Overcast
6:54 PM 36.0 °F 31.1 °F 26.1 °F 67% 30.22 in 10.0 mi South 5.8 mph - N/A   Overcast
7:54 PM 36.0 °F 29.6 °F 27.0 °F 70% 30.22 in 10.0 mi South 8.1 mph - N/A   Overcast
8:54 PM 36.0 °F 31.1 °F 28.0 °F 73% 30.23 in 10.0 mi South 5.8 mph - N/A   Overcast
9:54 PM 36.0 °F 32.1 °F 28.0 °F 73% 30.22 in 10.0 mi SSW 4.6 mph - N/A   Overcast
10:54 PM 36.0 °F - 28.9 °F 76% 30.19 in 10.0 mi Calm Calm - N/A   Overcast
11:54 PM 36.0 °F 30.3 °F 28.9 °F 76% 30.18 in 10.0 mi South 6.9 mph - N/A   Overcast